Regional Weather Roundup
Issued by NWS

Home | Current Version | Previous Version | Text Only | Print | Product List | Glossary Off
Versions: 1 2 3 4 5 6 7 8 9 10 11 12 13 14 15 16 17 18 19 20 21 22 23 24 25 26 27 28 29 30 31 32 33 34 35 36 37 38 39 40 41 42 43 44 45 46 47 48 49 50

000
ASUS43 KLOT 282108
RWRIL

ILLINOIS REGIONAL WEATHER ROUNDUP
NATIONAL WEATHER SERVICE CHICAGO/ROMEOVILLE IL
400 PM CDT FRI AUG 28 2015

NOTE: "FAIR" INDICATES FEW OR NO CLOUDS BELOW 12,000 FEET WITH NO
SIGNIFICANT WEATHER AND/OR OBSTRUCTIONS TO VISIBILITY.

* THESE STATIONS ARE NOT UNDER NWS QUALITY CONTROL. THEY ALSO MAY NOT
  REPORT WEATHER SUCH AS PRECIPITATION OR FOG.

ILZ001-002-007-009-015-016-024-282200-
NORTHWEST ILLINOIS

CITY           SKY/WX    TMP DP  RH WIND       PRES   REMARKS
MOLINE         CLOUDY    73  64  73 SE10      30.01F
STERLING*      CLOUDY    70  63  78 SE7       30.02F
SAVANNA*       CLOUDY    69  62  77 E5        30.04F
$$

ILZ003-004-008-010-011-017-018-282200-
NORTH CENTRAL ILLINOIS

CITY           SKY/WX    TMP DP  RH WIND       PRES   REMARKS
ROCKFORD       CLOUDY    69  62  78 E5        30.08F
FREEPORT*      CLOUDY    66  63  89 CALM      30.09S
ROCHELLE*      CLOUDY    69  62  78 SE6       30.07F
DE KALB*       CLOUDY    69  63  83 SE7       30.08F
PERU*          CLOUDY    73  62  68 SE5       30.07S
$$

ILZ005-006-012>014-019>023-282200-
NORTHEAST ILLINOIS

CITY           SKY/WX    TMP DP  RH WIND       PRES   REMARKS
CHICAGO-OHARE  CLOUDY    72  59  63 S5        30.08F
CHICAGO-MIDWAY CLOUDY    75  59  57 S6        30.08F
AURORA         CLOUDY    72  63  73 SE6       30.08F
LANSING*       CLOUDY    73  63  70 CALM      30.10F
JOLIET*        CLOUDY    74  65  71 E6        30.08F
WAUKEGAN       CLOUDY    70  60  70 S6        30.09F
DUPAGE AIRPORT CLOUDY    71  61  70 SE3       30.08F
KANKAKEE*      CLOUDY    75  63  65 CALM      30.09F
WHEELING       CLOUDY    72  58  61 S5        30.10F
MORRIS*        CLOUDY    72  65  78 E6        30.06F
ROMEOVILLE*    CLOUDY    72  62  70 SE5       30.08F
NORTHERLY ISL    N/A     73  58  59 E3          N/A
$$

LMZ740>746-282200-
SOUTHERN LAKE MICHIGAN

STATION/POSITION SKY/WX   TEMP    WIND        PRES    VSBY  WAVE
                          AIR SEA DIR/SP/G                  HT/PER
                          (F)     (DEG/KT/KT) (MB)    (MI)  (FT/S)
SOUTHERN BUOY              68 69  170/  6/  8 1019.4F
WILMETTE HARBOR            64 60  300/  4/  4   N/A           1
HARRISON CRIB              72     190/  6/  7   N/A
BURNHAM HARBOR             71      CALM  /  7   N/A
MICHIGAN CITY              73     260/  4/  4   N/A
MICHIGAN CITY 6N           72 71   80/  2/  2   N/A           0
ST. JOSEPH                 71 72   70/  2/  2   N/A           0
$$

ILZ025>027-034>036-040-047-049-050-058-095>099-282200-
WEST-CENTRAL ILLINOIS

CITY           SKY/WX    TMP DP  RH WIND       PRES   REMARKS
QUINCY         CLOUDY    73  62  68 SE12      30.00F
GALESBURG*     CLOUDY    71  64  77 S5        30.03S
MACOMB*        CLOUDY    73  63  71 SE8       30.04F
JACKSONVILLE*  CLOUDY    78  61  55 SE12      30.04F
PITTSFIELD*    CLOUDY    77  62  59 SE8       30.04F
$$

ILZ028>032-037-038-041>044-048-051>054-059>061-282200-
CENTRAL ILLINOIS

CITY           SKY/WX    TMP DP  RH WIND       PRES   REMARKS
PONTIAC        CLOUDY    75  65  71 SE5       30.07F
BLOOMINGTON    CLOUDY    79  62  55 S13       30.08F HX  80
DECATUR        CLOUDY    78  58  49 SE13      30.07F
PEORIA         CLOUDY    77  62  59 SE7       30.04F
LACON*         CLOUDY    74  62  67 SE8       30.03F
LINCOLN*       CLOUDY    80  57  45 S9        30.05F HX  80
SPRINGFIELD    CLOUDY    79  59  50 SE15      30.05F HX  80
TAYLORVILLE    PTSUNNY   77  61  57 S7        30.07F
$$

ILZ033-039-045-046-055>057-062-063-282200-
EAST-CENTRAL ILLINOIS

CITY           SKY/WX    TMP DP  RH WIND       PRES   REMARKS
CHAMPAIGN      CLOUDY    79  58  48 SE7       30.09F HX  80
RANTOUL*       CLOUDY    80  60  49 SE9       30.09F HX  81
MATTOON        PTSUNNY   80  55  42 SE8       30.08F HX  80
PARIS*         MOSUNNY   80  58  46 SE5       30.10F HX  80
$$

ILZ079-100>102-282200-
SOUTHWEST ILLINOIS

CITY           SKY/WX    TMP DP  RH WIND       PRES   REMARKS
BELLEVILLE     MOSUNNY   81  64  54 E8        30.04F HX  83
CAHOKIA*       MOSUNNY   82  61  48 SE8       30.04F HX  83
SPARTA*        MOSUNNY   79  60  52 SE6       30.06F HX  80
$$

ILZ064>066-069>071-074>076-080>082-084>086-088>090-092>094-282200-
SOUTH-CENTRAL ILLINOIS

CITY           SKY/WX    TMP DP  RH WIND       PRES   REMARKS
CARBONDALE     MOSUNNY   80  59  48 SE5       30.06F HX  81
CAIRO*         PTSUNNY   82  68  61 CALM      30.04F HX  85
EFFINGHAM*     MOSUNNY   81  51  35 SE7       30.09F HX  80
MARION         MOSUNNY   82  61  47 SE8       30.07F HX  83
MT. VERNON     SUNNY     82  57  42 SE5       30.08F HX  82
SALEM*         MOSUNNY   81  57  43 E8        30.07F HX  81
METROPOLIS*    MOSUNNY   83  66  56 CALM      30.05F HX  85
$$

ILZ067-068-072-073-078-083-087-091-282200-
SOUTHEAST ILLINOIS

CITY           SKY/WX    TMP DP  RH WIND       PRES   REMARKS
LAWRENCEVILLE  SUNNY     81  57  43 E8        30.08F HX  81
FLORA*         SUNNY     81  56  41 E9        30.07F HX  81
FAIRFIELD*     MOSUNNY   80  59  49 E9G17     30.06F HX  81
HARRISBURG*    MOSUNNY   80  61  52 SE5       30.07S HX  81
ROBINSON*      SUNNY     80  56  42 E9        30.09F HX  80
CARMI*         SUNNY     81  60  48 CALM      30.06F HX  82
$$

ABBREVIATIONS USED IN REMARKS
   TC - TEMPERATURE IN CELSIUS
  WCI - WIND CHILL INDEX
   HX - HEAT INDEX
  VSB - VISIBILITY
$$



USA.gov is the U.S. government's official web portal to all federal, state and local government web resources and services.